Airfield :
LOGIN :

Register | Disclaimer

   EN    FR    IT 

 










Legend :    VFR   Marginal VFR   IFR   Intensive IFR   Very Intensive IFR
Visi :
Ceiling :
>= 8 km
>= 3000ft
5 to 8 km
1000 to 3000 ft
1500m to 5 km
500 to 1000 ft
800 to 1500m
200 to 500 ft
< 800m
< 200 ft
Symbols :   Thunderstorms  Fog  Heavy snow  Heavy precipitations  Wind > 20 kt
SIGMETs :     Misc.  Thunderstorms  Icing  Turbulence  Mountain Waves  Volcanic Ashes






- Airport Elevation : 194 ft
- IATA code : ANE


LFJR - Angers Marcé

CURRENT METAR :
  • 261830Z AUTO 21002KT 9999 FEW039 BKN068 07/06 Q1008

EXPIRED METARs :
  • 261800Z AUTO 22002KT CAVOK 07/06 Q1008
  • 261730Z AUTO 22005KT 9999 FEW031 08/07 Q1008
  • 261700Z AUTO 23005KT 9999 FEW001/// SCT064/// BKN078/// ///CB 09/07 Q1007
  • 261630Z AUTO 28008KT 240V330 9999 -RA FEW030/// BKN054/// OVC066/// ///TCU 11/08 Q1007
  • 261600Z AUTO 23009KT 9999 SCT037/// BKN044/// BKN056/// ///CB 13/08 Q1007

Expired Forecast.



MET'MAP, your aeronautical weather chart ! - Copyright ORBIFLY December 2007 - Disclaimer

ORBIFLY MET'MAP TEAM :

Programming & Development : Alexandra Zaïnal
Concept & original design : Baudouin d'Aumeries
Assistance for programming : Marc-Olivier Méhu
Technical & hardware support : Manuel Goepfert

Contact : metmap@orbifly.com




SOURCES & CREDITS :

   NOAA